This is the latest recevied weather packets stored in our database for station/object WB6ANP. If no packets are shown the sender has not sent any weather packets the latest 1 day(s).
| Time | Temp. | Humidity | Pressure | Rain* | Wind** | Luminosity | Snow |
|---|---|---|---|---|---|---|---|
| 1777988133 | 20.56° C | 86% | 1004.8 hPa | 0 mm | 0.89 m/s, 188° | 148 W/m² | - |
| 1777987832 | 20.56° C | 86% | 1004.8 hPa | 0 mm | 2.68 m/s, 209° | 152 W/m² | - |
| 1777987526 | 20.56° C | 87% | 1004.7 hPa | 0 mm | 1.79 m/s, 228° | 137 W/m² | - |
| 1777987223 | 20.56° C | 87% | 1004.4 hPa | 0 mm | 3.13 m/s, 215° | 105 W/m² | - |
| 1777986920 | 20° C | 87% | 1004.5 hPa | 0 mm | 0.89 m/s, 170° | 109 W/m² | - |
| 1777986618 | 20° C | 87% | 1004.6 hPa | 0 mm | 2.24 m/s, 197° | 102 W/m² | - |
| 1777986315 | 20° C | 87% | 1004.4 hPa | 0 mm | 1.79 m/s, 223° | 123 W/m² | - |
| 1777986014 | 20° C | 87% | 1004.5 hPa | 0 mm | 2.24 m/s, 189° | 95 W/m² | - |
| 1777985710 | 20° C | 87% | 1004.3 hPa | 0 mm | 1.79 m/s, 190° | 89 W/m² | - |
| 1777985407 | 20° C | 87% | 1004.4 hPa | 0 mm | 2.24 m/s, 201° | 74 W/m² | - |
| 1777985103 | 20° C | 88% | 1004.4 hPa | 0 mm | 3.58 m/s, 204° | 70 W/m² | - |
| 1777984800 | 20° C | 88% | 1004.4 hPa | 0 mm | 1.79 m/s, 176° | 70 W/m² | - |
| 1777984496 | 20° C | 88% | 1004.4 hPa | 0 mm | 1.79 m/s, 181° | 64 W/m² | - |
| 1777984192 | 19.44° C | 88% | 1004.2 hPa | 0 mm | 1.79 m/s, 203° | 47 W/m² | - |
| 1777983890 | 19.44° C | 88% | 1004.1 hPa | 0 mm | 0.89 m/s, 203° | 52 W/m² | - |
| 1777983586 | 19.44° C | 88% | 1004 hPa | 0 mm | 1.79 m/s, 172° | 38 W/m² | - |
| 1777983283 | 19.44° C | 88% | 1004 hPa | 0 mm | 0.89 m/s, 181° | 33 W/m² | - |
| 1777982979 | 19.44° C | 88% | 1004 hPa | 0 mm | 1.34 m/s, 203° | 26 W/m² | - |
| 1777982676 | 19.44° C | 88% | 1003.9 hPa | 0 mm | 2.24 m/s, 201° | 20 W/m² | - |
| 1777982375 | 19.44° C | 88% | 1003.8 hPa | 0 mm | 0.89 m/s, 205° | 14 W/m² | - |
| 1777982072 | 19.44° C | 88% | 1004 hPa | 0 mm | 1.79 m/s, 201° | 9 W/m² | - |
| 1777981770 | 19.44° C | 88% | 1004 hPa | 0 mm | 1.34 m/s, 189° | 5 W/m² | - |
| 1777981465 | 19.44° C | 88% | 1003.7 hPa | 0 mm | 2.24 m/s, 207° | 3 W/m² | - |
| 1777981162 | 19.44° C | 88% | 1003.8 hPa | 0 mm | 2.68 m/s, 219° | 2 W/m² | - |
| 1777980859 | 19.44° C | 87% | 1003.8 hPa | 0 mm | 2.24 m/s, 189° | 1 W/m² | - |
* Rain latest hour (hover to see other rain measurements)
** Current wind speed in m/s (hover to see current wind gust speed)